GW1361 Weather Reports


time (UTC)temp
F
wind
direction
speed
knots
gust
knots
rain 1hr
in
rain 24hr
in
rain mn
in
humidity
%
barometer
mb
20260505122513 36 28 0.9 0.9 0.07 0.06 0.06 97 1016.0
20260505122010 36 24 1.7 2.6 0.07 0.06 0.06 97 1016.3
20260505121506 36 14 1.7 2.6 0.00 0.05 0.05 97 1016.3
20260505121003 36 23 0.9 1.7 0.00 0.05 0.05 97 1016.2
20260505120459 36 23 0.9 0.9 0.00 0.05 0.05 97 1016.0
20260505115958 36 14 2.6 4.3 0.00 0.05 0.05 97 1016.0
20260505115454 37 23 0.9 1.7 0.07 0.05 0.05 97 1016.0
20260505114953 37 27 0.9 0.9 0.07 0.05 0.05 97 1015.8
20260505114449 37 14 0.0 0.9 0.00 0.04 0.04 97 1015.9
20260505113946 37 14 3.5 4.3 0.00 0.04 0.04 96 1015.8
20260505113442 37 316 3.5 4.3 0.05 0.04 0.04 96 1015.7
20260505112938 37 27 0.9 1.7 0.05 0.04 0.04 96 1015.6
20260505112436 38 20 0.9 0.9 0.12 0.04 0.04 96 1015.5
20260505111932 38 8 1.7 2.6 0.07 0.03 0.03 96 1015.6
20260505111426 38 26 0.0 0.0 0.05 0.02 0.02 96 1015.5
20260505110923 38 22 0.9 2.6 0.05 0.02 0.02 96 1015.5
20260505110420 39 23 2.6 6.1 0.00 0.01 0.01 96 1015.3
20260505101851 41 29 3.5 6.1 0.07 0.01 0.01 96 1014.4
20260505101345 41 339 2.6 4.3 0.07 0.01 0.01 96 1014.2
20260505100841 41 25 0.9 1.7 0.07 0.01 0.01 96 1014.2
20260505100338 41 31 1.7 4.3 0.00 0.00 0.00 96 1014.2
20260505095834 41 309 2.6 4.3 0.00 0.00 0.00 96 1014.3
20260505095332 41 3 4.3 6.1 0.00 0.00 0.00 96 1014.3
20260505094828 41 322 5.2 9.6 0.00 0.00 0.00 96 1014.3
20260505094325 41 19 3.5 4.3 0.00 0.00 0.00 96 1013.9
20260505093820 41 315 3.5 5.2 0.00 0.00 0.00 96 1014.0
20260505093318 42 357 3.5 5.2 0.00 0.00 0.00 96 1014.3
20260505092814 42 314 2.6 4.3 0.00 0.00 0.00 96 1014.2
20260505092313 42 20 0.0 0.9 0.00 0.00 0.00 96 1014.3
20260505091810 42 27 0.0 0.0 0.00 0.00 0.00 96 1014.2
20260505091308 42 243 3.5 4.3 0.00 0.00 0.00 96 1013.9
20260505090806 42 249 4.3 4.3 0.00 0.00 0.00 96 1014.0
20260505090304 42 339 2.6 2.6 0.00 0.00 0.00 96 1013.9
20260505085801 42 352 5.2 7.0 0.00 0.00 0.00 97 1013.9
20260505085259 43 356 5.2 7.8 0.00 0.00 0.00 97 1013.9
20260505084756 46 330 4.3 7.0 0.00 0.00 0.00 97 1013.7
20260505084255 46 23 0.0 0.0 0.00 0.00 0.00 98 1013.7
20260505083751 46 23 0.0 0.9 0.00 0.00 0.00 98 1013.8
20260505083248 46 21 0.0 0.0 0.00 0.00 0.00 98 1013.8
20260505082744 46 23 0.0 0.0 0.00 0.00 0.00 98 1014.0
20260505082242 46 21 0.0 0.0 0.00 0.00 0.00 98 1013.9
20260505081737 46 22 0.0 0.0 0.00 0.00 0.00 98 1013.6
20260505081235 46 22 0.0 0.0 0.00 0.00 0.00 98 1013.8
20260505080732 46 23 0.0 0.0 0.00 0.00 0.00 98 1013.9
20260505080227 45 24 0.0 0.0 0.00 0.00 0.00 97 1013.9
20260505075723 45 25 0.0 0.0 0.00 0.00 0.00 97 1013.8
20260505075221 46 25 0.0 0.0 0.00 0.00 0.00 97 1013.6
20260505074718 46 17 0.0 0.0 0.00 0.00 0.00 97 1013.9
20260505074215 46 24 0.0 0.0 0.00 0.00 0.00 97 1013.8
20260505073712 46 23 0.0 0.0 0.00 0.00 0.00 97 1013.8
20260505073210 45 22 0.0 0.0 0.00 0.00 0.00 97 1013.9
20260505072706 45 43 0.9 0.9 0.00 0.00 0.00 97 1013.8
20260505072202 46 33 0.0 0.0 0.00 0.00 0.00 97 1013.8
20260505071658 46 32 0.0 0.0 0.00 0.00 0.00 97 1013.8
20260505071155 45 31 0.0 0.0 0.00 0.00 0.00 97 1014.2
20260505070653 45 27 0.0 0.0 0.00 0.00 0.00 97 1014.2
20260505070149 45 27 0.0 0.0 0.00 0.00 0.00 97 1014.2
20260505065645 45 27 0.0 0.0 0.00 0.00 0.00 97 1014.0
20260505065142 45 27 0.0 0.0 0.00 0.00 0.00 97 1014.2
20260505064638 46 25 0.0 0.0 0.00 0.00 0.00 97 1014.4
20260505064137 46 26 0.0 0.0 0.00 0.00 0.00 97 1014.2
20260505063634 46 35 0.0 0.0 0.00 0.00 0.00 97 1014.2
20260505063130 45 32 0.0 0.0 0.00 0.00 0.00 97 1014.4
20260505062626 45 30 0.0 0.0 0.00 0.00 0.00 97 1014.3
20260505062124 45 30 0.0 0.0 0.00 0.00 0.00 97 1014.3
20260505061621 45 30 0.0 0.0 0.00 0.00 0.00 97 1014.3
20260505061119 45 27 0.0 0.0 0.00 0.00 0.00 97 1014.4
20260505060616 45 28 0.0 0.0 0.00 0.00 0.00 97 1014.3
20260505060113 45 28 0.0 0.0 0.00 0.00 0.00 97 1014.4
20260505055608 45 29 0.0 0.0 0.00 0.14 0.14 97 1014.3
20260505055105 45 29 0.0 0.0 0.00 0.14 0.14 97 1014.2
20260505054602 46 27 0.0 0.0 0.00 0.14 0.14 96 1014.3
20260505054101 46 25 0.0 0.0 0.00 0.14 0.14 96 1014.3
20260505053557 45 26 0.0 0.0 0.00 0.14 0.14 96 1014.2
20260505053054 45 31 0.0 0.0 0.00 0.14 0.14 96 1014.2
20260505052550 45 31 0.0 0.0 0.00 0.14 0.14 96 1014.2
20260505052048 45 31 0.0 0.0 0.00 0.14 0.14 96 1014.3
20260505051545 46 31 0.0 0.0 0.00 0.14 0.14 96 1014.0
20260505051043 46 25 0.0 0.0 0.00 0.14 0.14 95 1014.5
20260505050541 46 25 0.0 0.0 0.00 0.14 0.14 95 1014.6
20260505041509 46 22 0.0 0.0 0.05 0.14 0.14 94 1014.7
20260505041006 47 11 0.0 0.9 0.00 0.13 0.13 94 1015.0
20260505040503 46 16 0.0 0.9 0.07 0.13 0.13 94 1015.1
20260505040000 46 21 0.0 0.0 0.07 0.13 0.13 93 1014.7
20260505035456 46 25 0.0 0.0 0.00 0.12 0.12 93 1014.7
20260505034953 46 24 0.0 0.0 0.05 0.12 0.12 93 1014.6
20260505034450 46 19 0.0 0.0 0.05 0.12 0.12 92 1014.7
20260505033947 47 19 1.7 2.6 0.07 0.11 0.11 92 1014.7
20260505033443 47 24 0.0 0.0 0.12 0.11 0.11 91 1015.0
20260505032942 47 355 1.7 2.6 0.17 0.10 0.10 90 1015.1
20260505032439 48 18 0.9 0.9 0.12 0.09 0.09 90 1014.7
20260505031935 48 24 0.0 0.0 0.12 0.08 0.08 88 1014.5
20260505031432 49 333 0.9 1.7 0.07 0.07 0.07 86 1014.4
20260505030929 50 331 1.7 2.6 0.07 0.06 0.06 83 1014.2
20260505030425 50 0 2.6 2.6 0.07 0.06 0.06 80 1014.2
20260505025920 50 23 0.0 0.0 0.00 0.05 0.05 81 1014.2
20260505025418 50 6 2.6 5.2 0.00 0.05 0.05 82 1014.0
20260505024917 50 15 0.9 0.9 0.00 0.05 0.05 81 1013.7
20260505024414 50 350 0.9 1.7 0.00 0.05 0.05 80 1013.7
20260505023911 50 13 0.9 1.7 0.00 0.05 0.05 81 1013.6
20260505023408 50 19 0.9 0.9 0.00 0.05 0.05 81 1013.6
20260505022905 50 15 0.9 1.7 0.00 0.05 0.05 86 1013.2
20260505022402 50 14 0.9 0.9 0.00 0.05 0.05 92 1013.1
20260505021859 50 26 0.0 0.0 0.00 0.05 0.05 91 1013.0
20260505021355 50 26 0.0 0.0 0.00 0.05 0.05 91 1013.1
20260505020852 50 26 0.0 0.0 0.00 0.05 0.05 90 1012.9
20260505020347 50 26 0.0 0.0 0.00 0.05 0.05 90 1012.7
20260505015844 50 26 0.0 0.0 0.00 0.05 0.05 90 1013.1
20260505015341 50 26 0.0 0.0 0.00 0.05 0.05 89 1013.0
20260505014839 50 26 0.0 0.0 0.00 0.05 0.05 89 1013.0
20260505014336 50 8 0.0 0.0 0.00 0.05 0.05 89 1012.9
20260505013832 50 18 0.0 0.0 0.00 0.05 0.05 89 1012.6
20260505013329 51 18 0.0 0.0 0.00 0.05 0.05 88 1012.7
20260505012828 50 17 0.0 0.0 0.00 0.05 0.05 88 1012.6
20260505012325 51 20 0.0 0.0 0.00 0.05 0.05 87 1012.7
20260505011821 51 26 0.0 0.0 0.00 0.05 0.05 86 1013.0
20260505011318 51 33 0.0 0.0 0.00 0.05 0.05 85 1012.7
20260505010814 51 39 0.0 0.0 0.00 0.05 0.05 86 1012.7
20260505010310 51 21 0.0 0.0 0.00 0.05 0.05 87 1012.5
20260505005806 51 19 0.0 0.0 0.00 0.05 0.05 88 1012.6
20260505005304 51 26 0.0 0.0 0.00 0.05 0.05 87 1012.5
20260505004801 51 37 0.0 0.0 0.00 0.05 0.05 87 1012.7
20260505004256 50 28 0.0 0.0 0.05 0.05 0.05 86 1012.9
20260505003754 51 23 0.0 0.0 0.17 0.05 0.05 83 1012.9
20260505003252 51 27 0.0 0.0 0.19 0.04 0.04 76 1013.3
20260505002748 53 18 0.0 0.9 0.12 0.02 0.02 75 1013.4
20260505002245 53 24 0.9 0.9 0.05 0.01 0.01 66 1013.3
20260505001743 56 326 5.2 7.0 0.00 0.00 0.00 64 1013.3
20260505001240 59 328 2.6 2.6 0.00 0.00 0.00 52 1012.7
20260505000737 59 261 1.7 2.6 0.00 0.00 0.00 45 1012.6
20260505000235 59 231 1.7 2.6 0.00 0.00 0.00 45 1012.4
20260504235731 59 26 1.7 1.7 0.00 0.00 0.00 46 1012.4
20260504235227 59 2 0.9 1.7 0.00 0.00 0.00 46 1012.1
20260504234725 60 9 3.5 5.2 0.00 0.00 0.00 44 1012.1
20260504234222 60 278 2.6 2.6 0.00 0.00 0.00 44 1012.0
20260504233718 60 349 2.6 2.6 0.00 0.00 0.00 44 1012.0
20260504233214 60 13 2.6 2.6 0.00 0.00 0.00 43 1011.9
20260504232711 60 356 3.5 4.3 0.00 0.00 0.00 44 1011.8
20260504232208 60 16 1.7 1.7 0.00 0.00 0.00 44 1011.7
20260504231705 60 331 1.7 1.7 0.00 0.00 0.00 44 1011.7
20260504231201 60 10 2.6 2.6 0.00 0.00 0.00 44 1011.6
20260504230657 61 11 2.6 2.6 0.00 0.00 0.00 42 1011.7
20260504230156 62 13 0.9 1.7 0.00 0.00 0.00 40 1011.4
20260504225654 62 353 2.6 4.3 0.00 0.00 0.00 39 1011.4
20260504225150 63 10 4.3 5.2 0.00 0.00 0.00 39 1011.3
20260504224648 63 22 1.7 2.6 0.00 0.00 0.00 39 1011.3
20260504224144 65 353 4.3 6.1 0.00 0.00 0.00 38 1011.3
20260504223641 64 332 1.7 2.6 0.00 0.00 0.00 35 1011.3
20260504223137 63 354 3.5 5.2 0.00 0.00 0.00 40 1011.2
20260504222634 62 2 7.0 8.7 0.00 0.00 0.00 39 1011.4
20260504222131 62 300 4.3 5.2 0.00 0.00 0.00 39 1011.3
20260504221628 62 26 1.7 1.7 0.00 0.00 0.00 38 1011.2
20260504221125 62 47 0.9 1.7 0.00 0.00 0.00 37 1011.2
20260504220621 62 339 4.3 6.1 0.00 0.00 0.00 37 1011.0
20260504220120 62 0 1.7 1.7 0.00 0.00 0.00 39 1011.0
20260504215615 63 21 3.5 4.3 0.00 0.00 0.00 35 1010.7
20260504215113 65 3 4.3 4.3 0.00 0.00 0.00 33 1010.6
20260504214609 67 9 0.9 0.9 0.00 0.00 0.00 27 1010.6
20260504214105 67 27 0.0 0.0 0.00 0.00 0.00 28 1010.3
20260504213602 68 84 0.0 0.9 0.00 0.00 0.00 28 1010.1
20260504213059 68 37 0.0 0.9 0.00 0.00 0.00 28 1009.9
20260504212554 69 27 0.0 0.0 0.00 0.00 0.00 28 1010.1
20260504212052 69 22 1.7 2.6 0.00 0.00 0.00 29 1010.3
20260504211549 69 32 0.0 0.0 0.00 0.00 0.00 28 1010.3
20260504211045 71 7 1.7 1.7 0.00 0.00 0.00 26 1010.4
20260504210543 71 28 0.0 0.9 0.00 0.00 0.00 26 1010.5
20260504210039 70 22 2.6 2.6 0.00 0.00 0.00 27 1010.6
20260504205537 69 347 1.7 1.7 0.00 0.00 0.00 29 1010.7
20260504205035 70 22 0.9 0.9 0.00 0.00 0.00 30 1010.8
20260504204533 70 20 2.6 2.6 0.00 0.00 0.00 28 1011.2
20260504204032 70 344 4.3 6.1 0.00 0.00 0.00 29 1011.2
20260504203529 69 22 0.0 0.9 0.00 0.00 0.00 30 1011.2
20260504203027 69 22 0.9 0.9 0.00 0.00 0.00 31 1011.6
20260504202522 68 353 4.3 6.1 0.00 0.00 0.00 30 1011.4
20260504202019 69 9 4.3 6.1 0.00 0.00 0.00 31 1011.4
20260504201516 68 346 1.7 1.7 0.00 0.00 0.00 32 1011.6
20260504201014 67 337 2.6 4.3 0.00 0.00 0.00 32 1011.4
20260504200510 66 19 1.7 1.7 0.00 0.00 0.00 32 1011.4
20260504200007 65 5 3.5 4.3 0.00 0.00 0.00 33 1011.7
20260504195503 64 277 2.6 4.3 0.00 0.00 0.00 35 1011.3
20260504195000 64 21 0.9 0.9 0.00 0.00 0.00 37 1011.6
20260504194455 63 20 1.7 1.7 0.00 0.00 0.00 37 1011.4
20260504193951 63 34 0.9 1.7 0.00 0.00 0.00 37 1011.6
20260504193449 63 25 0.9 0.9 0.00 0.00 0.00 40 1011.6
20260504192948 62 26 0.9 1.7 0.00 0.00 0.00 38 1011.7
20260504192444 62 1 0.9 1.7 0.00 0.00 0.00 39 1011.7
20260504191943 61 30 0.0 0.0 0.00 0.00 0.00 43 1012.0
20260504191441 62 30 0.0 0.0 0.00 0.00 0.00 39 1012.4
20260504190936 64 308 3.5 4.3 0.00 0.00 0.00 33 1012.4
20260504190432 64 312 0.9 1.7 0.00 0.00 0.00 32 1012.0
20260504185929 64 35 1.7 1.7 0.00 0.00 0.00 32 1012.0
20260504185426 65 33 0.0 0.9 0.00 0.00 0.00 31 1012.0
20260504184921 67 110 2.6 6.1 0.00 0.00 0.00 28 1011.6
20260504184417 67 28 0.0 0.0 0.00 0.00 0.00 26 1011.3
20260504183914 67 25 0.0 0.0 0.00 0.00 0.00 24 1011.1
20260504183411 68 85 2.6 2.6 0.00 0.00 0.00 24 1010.8
20260504182909 68 29 0.0 0.0 0.00 0.00 0.00 26 1011.0
20260504182406 68 19 0.0 0.9 0.00 0.00 0.00 26 1010.7
20260504181903 69 24 1.7 1.7 0.00 0.00 0.00 25 1010.8
20260504181400 69 79 0.9 1.7 0.00 0.00 0.00 26 1010.7
20260504180859 70 17 0.0 0.0 0.00 0.00 0.00 25 1011.0
20260504180357 70 35 0.0 0.0 0.00 0.00 0.00 25 1010.8
20260504175855 71 22 1.7 1.7 0.00 0.00 0.00 24 1011.0
20260504175351 72 9 1.7 1.7 0.00 0.00 0.00 24 1011.0
20260504174849 71 21 0.9 0.9 0.00 0.00 0.00 24 1010.7
20260504174346 71 355 1.7 2.6 0.00 0.00 0.00 23 1010.8
20260504173843 71 1 1.7 1.7 0.00 0.00 0.00 24 1011.1
20260504173340 73 353 1.7 1.7 0.00 0.00 0.00 22 1011.2
20260504172837 74 23 0.0 0.9 0.00 0.00 0.00 24 1011.3
20260504172334 72 22 0.0 0.0 0.00 0.00 0.00 24 1011.4
20260504171829 72 322 1.7 5.2 0.00 0.00 0.00 23 1011.3
20260504171327 72 355 3.5 4.3 0.00 0.00 0.00 22 1011.4
20260504170824 71 4 0.0 0.9 0.00 0.00 0.00 23 1011.4
20260504170321 72 21 0.9 1.7 0.00 0.00 0.00 23 1011.6
20260504160239 68 354 1.7 2.6 0.00 0.00 0.00 26 1012.1
20260504150704 66 4 1.7 1.7 0.00 0.00 0.00 27 1012.5
20260504150201 66 3 2.6 4.3 0.00 0.00 0.00 27 1012.4
20260504141130 53 29 0.0 0.0 0.00 0.00 0.00 46 1012.7
20260504140627 52 28 0.0 0.0 0.00 0.00 0.00 51 1012.9
20260504140122 51 18 0.0 0.0 0.00 0.00 0.00 52 1012.6
20260504130551 46 25 0.0 0.0 0.00 0.00 0.00 52 1012.4